Location: Louisville
(33.0010°N, 82.4110°W)
Time: 12:47:40
(UTC-05:00)

N. Korean satellite - Visible Passes

Search period start: 12 November 2018 00:00
Search period end: 22 November 2018 00:00
Orbit: 457 x 511 km, 97.2° (Epoch: 12 November)

Date Brightness Start Highest point End Pass type
(mag) Time Alt. Az. Time Alt. Az. Time Alt. Az.
12 Nov 7.7 06:29:18 10° NNE 06:32:38 47° E 06:35:57 10° S visible
12 Nov 8.3 18:33:57 10° SSW 18:37:22 37° W 18:40:46 10° NNW visible
13 Nov 9.5 06:05:27 10° NE 06:08:05 20° E 06:10:42 10° SSE visible
13 Nov 6.6 18:09:13 10° S 18:12:53 87° WSW 18:16:32 10° NNW visible
15 Nov 9.5 18:54:42 10° SW 18:57:24 19° W 19:00:05 10° NW visible
16 Nov 8.1 06:24:50 10° NNE 06:28:05 40° E 06:31:20 10° S visible
16 Nov 8.0 18:29:23 10° S 18:32:51 42° W 18:36:17 10° NNW visible
17 Nov 9.7 06:01:05 10° NE 06:03:31 18° E 06:05:56 10° SE visible
17 Nov 6.5 18:04:43 10° SSE 18:08:22 81° ENE 18:11:57 10° N visible
18 Nov 10.3 19:17:00 10° W 19:17:27 10° W 19:17:54 10° W visible
19 Nov 9.3 18:49:58 10° SSW 18:52:50 22° W 18:55:39 10° NW visible
20 Nov 8.4 06:20:18 10° NNE 06:23:29 34° E 06:26:39 10° SSE visible
20 Nov 7.6 18:24:46 10° S 18:28:17 48° W 18:31:44 10° NNW visible
21 Nov 9.8 05:56:43 10° NE 05:58:53 16° E 06:01:03 10° SE visible
21 Nov 6.5 18:00:12 10° SSE 18:03:47 69° ENE 18:07:19 10° N visible
